FW0916 Weather Reports


time (UTC)temp
C
wind
direction
speed
KPH
gust
KPH
rain 1hr
cm
rain 24hr
cm
rain mn
cm
humidity
%
barometer
mb
20260508193006 13 44 4.8 14.5 0.00 1.65 0.00 59 1001.1
20260508191508 13 348 4.8 16.1 0.00 1.65 0.00 59 1001.1
20260508190006 13 57 6.4 16.1 0.00 2.08 0.00 57 1000.9
20260508184505 13 52 8.0 19.3 0.00 2.08 0.00 58 1000.9
20260508183003 13 9 4.8 20.9 0.00 2.08 0.00 59 1000.8
20260508181503 13 63 6.4 16.1 0.00 2.08 0.00 60 1001.0
20260508180100 13 13 3.2 16.1 0.00 2.08 0.00 63 1001.3
20260508174559 13 26 4.8 12.9 0.00 2.11 0.00 63 1001.2
20260508173059 13 67 8.0 14.5 0.00 2.11 0.00 63 1001.1
20260508171556 12 66 3.2 14.5 0.00 2.11 0.00 66 1001.4
20260508170054 11 49 4.8 16.1 0.00 2.11 0.00 71 1001.7
20260508164549 10 47 4.8 9.7 0.00 2.11 0.00 70 1001.7
20260508163045 10 67 1.6 14.5 0.00 2.11 0.00 72 1001.5
20260508161545 10 49 4.8 11.3 0.00 2.11 0.00 73 1001.5
20260508160044 10 38 4.8 12.9 0.00 2.11 0.00 74 1001.6
20260508154544 10 72 6.4 16.1 0.00 2.11 0.00 73 1001.7
20260508153043 10 17 4.8 11.3 0.00 2.11 0.00 76 1001.6
20260508151544 10 81 3.2 14.5 0.00 2.11 0.00 77 1001.6
20260508150043 10 34 4.8 16.1 0.00 2.11 0.00 77 1001.8
20260508144541 10 11 6.4 14.5 0.00 2.11 0.00 76 1001.8
20260508143041 10 44 8.0 17.7 0.00 2.11 0.00 75 1001.7
20260508141540 11 43 4.8 11.3 0.00 2.11 0.00 79 1001.7
20260508140040 10 355 3.2 16.1 0.00 2.11 0.00 80 1002.1
20260508134538 10 15 8.0 17.7 0.00 2.11 0.00 80 1002.2
20260508133037 10 24 4.8 12.9 0.00 2.11 0.00 80 1002.7
20260508131532 10 52 4.8 12.9 0.00 2.11 0.00 83 1002.4
20260508130030 10 15 3.2 11.3 0.00 2.11 0.00 86 1002.2
20260508124525 9 344 1.6 11.3 0.00 2.11 0.00 87 1002.0
20260508123025 8 35 4.8 8.0 0.00 2.11 0.00 88 1002.1
20260508121525 8 360 1.6 8.0 0.00 2.11 0.00 91 1002.3
20260508120021 8 53 1.6 6.4 0.00 2.11 0.00 92 1002.3
20260508114520 7 30 1.6 8.0 0.00 2.11 0.00 94 1002.6
20260508113020 7 63 1.6 6.4 0.00 2.11 0.00 94 1002.6
20260508111521 6 320 1.6 8.0 0.00 2.11 0.00 94 1002.4
20260508110016 5 329 0.0 4.8 0.00 2.11 0.00 94 1002.4
20260508104518 5 117 0.0 0.0 0.00 2.11 0.00 94 1002.6
20260508103015 5 117 0.0 0.0 0.00 2.11 0.00 94 1002.9
20260508101512 5 348 0.0 0.0 0.00 2.11 0.00 94 1002.7
20260508100014 5 348 0.0 0.0 0.00 2.11 0.00 94 1002.7
20260508094507 5 348 0.0 0.0 0.00 2.11 0.00 94 1002.4
20260508093006 5 5 0.0 0.0 0.00 2.11 0.00 94 1002.4
20260508091505 5 17 0.0 0.0 0.00 2.11 0.00 94 1002.4
20260508090003 5 42 0.0 3.2 0.00 2.26 0.00 94 1002.3
20260508084502 5 63 0.0 8.0 0.00 2.26 0.00 94 1002.2
20260508083115 5 65 1.6 9.7 0.00 2.26 0.00 94 1002.0
20260508081602 5 40 4.8 11.3 0.00 2.26 0.00 94 1001.8
20260508080111 5 39 4.8 12.9 0.00 2.26 0.00 94 1001.8
20260508074554 5 48 3.2 11.3 0.00 2.34 0.00 94 1001.7
20260508073054 5 27 0.0 9.7 0.00 2.34 0.00 94 1001.7
20260508071559 6 22 8.0 16.1 0.00 2.34 0.00 94 1001.8
20260508070134 7 78 4.8 12.9 0.00 2.34 0.00 94 1001.8
20260508064545 7 69 1.6 11.3 0.00 2.34 0.00 94 1001.6
20260508063041 7 360 3.2 9.7 0.00 2.34 0.00 94 1001.6
20260508061544 8 11 0.0 1.6 0.00 2.34 0.00 94 1001.8
20260508060038 8 10 0.0 0.0 0.00 2.34 0.00 94 1001.5
20260508054537 8 17 0.0 4.8 0.00 2.34 0.00 94 1001.4
20260508053037 7 28 1.6 9.7 0.00 2.34 0.00 94 1001.5
20260508051536 8 299 0.0 0.0 0.00 2.34 0.00 94 1001.2
20260508050037 8 218 0.0 0.0 0.00 2.34 0.00 94 1001.2
20260508044532 8 218 0.0 0.0 0.00 2.34 0.00 94 1001.4
20260508043049 8 211 0.0 3.2 0.00 2.34 0.00 94 1001.5
20260508041530 8 183 0.0 3.2 0.00 2.34 0.00 94 1001.7
20260508040029 8 183 0.0 3.2 0.00 2.34 0.00 94 1001.5
20260508034525 8 154 1.6 4.8 0.00 2.34 0.00 94 1001.8
20260508033024 8 208 0.0 3.2 0.00 2.34 0.00 94 1001.9
20260508031524 8 215 0.0 8.0 0.00 2.34 0.00 94 1002.0
20260508030028 8 229 3.2 6.4 0.00 2.34 0.00 94 1002.1
20260508024520 8 236 1.6 4.8 0.00 2.34 2.34 94 1001.9
20260508023021 8 241 0.0 4.8 0.00 2.34 2.34 94 1001.7
20260508021519 8 224 0.0 6.4 0.00 2.34 2.34 94 1001.8
20260508020018 8 207 0.0 9.7 0.00 2.34 2.34 94 1001.8
20260508014518 8 236 1.6 8.0 0.00 2.34 2.34 94 1001.9
20260508013017 8 243 3.2 8.0 0.00 2.34 2.34 94 1001.8
20260508011519 8 218 3.2 6.4 0.00 2.34 2.34 94 1001.7
20260508010023 8 212 3.2 8.0 0.00 2.34 2.34 94 1002.0
20260508004516 9 245 3.2 9.7 0.00 2.34 2.34 94 1002.4
20260508003015 8 213 3.2 9.7 0.00 2.34 2.34 94 1002.2
20260508001515 8 191 1.6 8.0 0.00 2.34 2.34 94 1002.1
20260508000014 8 232 1.6 9.7 0.00 2.34 2.34 94 1002.4
20260507234514 8 225 1.6 8.0 0.00 2.34 2.34 94 1002.2
20260507233014 9 225 3.2 12.9 0.00 2.34 2.34 94 1002.3
20260507231517 8 191 3.2 8.0 0.00 2.34 2.34 94 1002.6
20260507230013 8 224 4.8 12.9 0.00 2.34 2.34 93 1002.9
20260507224511 8 136 0.0 14.5 0.00 2.34 2.34 93 1002.3
20260507223012 8 184 6.4 11.3 0.03 2.34 2.34 93 1002.8
20260507221511 8 169 8.0 17.7 0.03 2.34 2.34 93 1002.9
20260507220011 8 153 9.7 19.3 0.03 2.34 2.34 93 1002.9
20260507214510 8 207 4.8 12.9 0.05 2.34 2.34 93 1003.1
20260507213011 8 217 4.8 20.9 0.18 2.31 2.31 93 1003.3
20260507211509 8 178 11.3 29.0 0.38 2.31 2.31 93 1002.0
20260507210005 8 132 6.4 19.3 0.61 2.31 2.31 93 1003.0
20260507204503 8 135 4.8 16.1 0.89 2.31 2.31 93 1003.7
20260507203059 9 207 6.4 12.9 0.99 2.13 2.13 93 1003.9
20260507201604 9 88 0.0 6.4 1.07 1.93 1.93 92 1004.4
20260507200056 10 257 8.0 20.9 0.99 1.70 1.70 92 1005.0
20260507194559 10 181 8.0 17.7 0.89 1.42 1.42 92 1005.1